Cloud_Cover
100 100 100 100 100 32 25 22 4 20 0 11 0 0 0 0 0 0 0 0 0 0 0 2 5 26 49 99 76 72 45 0 0 0 3 59 78 0 0 29 100 100 100 22 5
100 100 100 100 100 79 26 23 14 20 1 12 0 0 0 1 0 0 0 0 0 0 0 0 5 13 40 81 58 29 8 2 0 0 63 1 1 0 0 5 99 73 2 6 24
100 100 100 100 100 90 33 29 21 24 14 18 0 0 0 0 0 0 0 0 0 0 0 0 12 99 86 5 40 100 5 0 0 0 2 0 0 3 2 53 88 6 0 0 0
100 100 100 100 100 99 34 29 21 27 12 18 0 0 0 0 0 0 0 0 0 0 0 5 5 6 95 86 77 11 0 0 0 0 5 3 4 0 66 2 1 0 0 0 0
100 100 100 100 100 100 41 22 0 0 6 6 0 0 0 0 0 0 0 0 0 0 0 5 5 5 22 84 18 5 0 0 4 1 0 4 1 0 0 0 0 0 0 0 0
100 100 100 100 100 100 45 1 0 0 4 0 0 0 0 0 0 0 0 0 0 0 0 0 0 5 8 3 41 0 0 2 1 2 0 5 2 1 0 0 0 0 0 0 0
100 100 100 100 100 100 54 0 0 0 0 0 0 0 0 0 0 0 0 0 0 0 0 0 0 0 0 1 0 34 5 4 2 0 0 0 1 0 0 0 0 0 0 0 0
100 100 100 100 100 100 20 0 0 0 0 0 0 0 0 0 0 0 0 0 0 0 0 0 0 0 0 0 42 94 5 5 5 0 0 0 0 0 0 0 0 4 0 0 0
100 100 100 100 100 76 0 0 0 0 0 0 0 0 0 0 0 0 0 0 0 0 0 0 0 0 0 5 5 5 7 1 5 0 0 0 0 0 0 0 0 0 2 0 0
100 100 100 100 100 14 0 0 0 0 0 0 0 0 0 0 0 0 0 0 0 0 0 0 0 0 2 5 42 6 3 5 5 0 0 0 0 0 0 0 0 0 0 0 0
100 100 100 100 100 0 2 0 0 0 0 0 0 0 0 0 0 0 0 0 0 0 0 0 0 5 0 0 0 4 12 59 5 0 0 0 0 0 0 0 0 0 0 0 4
100 100 100 100 88 6 20 0 0 0 0 0 0 0 0 0 0 0 0 0 0 0 0 0 0 0 0 4 24 98 78 12 5 0 2 6 0 0 0 0 0 0 0 0 0
100 100 100 100 45 29 0 0 0 0 0 0 0 0 0 0 0 0 0 0 0 0 0 0 0 2 5 5 15 36 1 2 2 0 0 0 0 0 3 8 4 5 4 0 0
100 100 100 100 14 0 0 0 0 0 0 0 0 0 0 0 0 0 0 0 0 0 0 0 0 2 5 1 0 0 0 0 0 0 2 8 0 0 100 33 88 98 5 29 95
100 100 100 100 82 0 0 0 0 0 0 0 0 0 0 0 0 0 0 0 0 0 0 0 3 5 5 0 0 0 0 0 0 0 0 5 0 1 5 32 84 100 81 30 100
100 100 99 14 81 2 0 0 0 0 0 0 0 0 0 0 0 0 0 0 0 0 0 0 0 0 0 0 0 0 0 4 12 0 36 21 0 44 50 39 100 46 100 3 100
100 100 91 0 0 0 0 0 0 0 0 0 0 0 0 0 0 0 0 0 0 0 0 0 0 0 0 0 0 0 0 0 2 2 42 7 0 5 2 45 56 97 100 25 17
100 100 34 4 0 0 0 0 0 0 0 0 0 0 0 0 0 0 0 0 0 0 0 0 0 0 0 0 0 0 0 0 0 1 48 5 1 14 98 99 32 3 77 100 100
19 34 8 0 0 0 0 0 0 0 0 0 0 0 0 0 0 0 0 0 0 0 0 0 0 0 0 0 0 0 0 0 1 6 6 40 4 19 63 100 100 100 93 100 100
0 0 0 0 0 0 3 1 4 0 0 0 0 0 0 0 0 0 0 0 0 0 0 0 0 0 0 0 0 0 0 0 26 97 24 6 71 22 93 100 100 100 100 100 100
0 0 0 0 0 1 2 45 1 0 0 0 0 0 0 0 0 0 0 0 0 0 0 0 1 4 0 4 21 0 0 0 58 35 72 9 2 71 34 100 100 100 100 100 100
0 0 0 0 0 62 17 5 5 0 0 0 1 0 0 0 0 0 0 0 0 0 0 0 0 0 2 0 5 5 2 4 5 98 66 13 4 5 6 87 100 100 100 100 100
0 0 0 0 84 15 38 66 32 0 0 6 1 22 4 0 3 2 0 0 0 0 0 0 0 1 0 0 4 51 5 5 5 21 16 2 1 0 2 3 65 100 100 98 21
3 2 1 0 5 5 39 100 73 100 2 2 31 71 73 45 4 40 1 0 0 5 1 0 0 0 0 0 0 0 31 5 7 37 23 1 0 5 15 3 5 5 22 9 0
7 100 98 0 24 98 73 100 100 100 100 100 77 100 29 67 43 25 13 0 5 2 0 0 0 0 0 0 0 0 0 4 6 92 4 4 0 31 72 55 92 85 9 4 0
40 100 89 48 16 17 87 100 100 100 100 99 35 97 10 2 2 0 0 0 0 0 0 0 0 0 0 5 0 1 3 0 0 1 99 100 61 75 5 5 5 6 5 1 0
100 100 76 99 80 93 5 73 66 78 5 2 20 4 0 3 4 2 0 1 98 100 100 2 19 38 78 3 0 2 14 1 1 0 80 100 100 23 17 17 45 3 0 0 0